Hourly Data Report for October 08, 2012

All times are specified in Local Standard Time (LST). Add 1 hour to adjust for Daylight Saving Time where and when it is observed.

ST LEONARD CS
NEW BRUNSWICK

47°09'28.050" N
67°49'55.014" W
245.00 m
810I001
71019
WIY

Download Data

Hourly Data (October 2012)
Hourly Data Report for October 8, 2012
Temp Definition
°C
Dew Point Temp Definition
°C
Rel Hum Definition
%
Wind Dir Definition
10's deg

Wind Spd Definition
km/h
Visibility Definition
km
Stn Press Definition
kPa
Hmdx Definition


Wind Chill Definition


Weather Definition


TIME
00:00 4.7 3.9 95   0   98.70     LegendNANA
01:00 4.5 3.7 95   0   98.63     LegendNANA
02:00 5.0 2.9 86 27 6   98.71     LegendNANA
03:00 4.0 2.6 91 25 4   98.74     LegendNANA
04:00 3.6 2.9 95 25 2   98.77     LegendNANA
05:00 3.5 2.6 94 24 4   98.77     LegendNANA
06:00 3.2 2.4 94 25 4   98.78     LegendNANA
07:00 3.1 2.4 95 24 6   98.79     LegendNANA
08:00 3.5 2.8 95 25 6   98.84     LegendNANA
09:00 3.9 2.7 92 28 9   98.92     LegendNANA
10:00 4.4 2.9 90 29 9   98.95     LegendNANA
11:00 5.4 2.3 80 29 9   98.98     LegendNANA
12:00 6.4 2.2 74 25 9   98.99     LegendNANA
13:00 5.8 3.1 83 30 11   99.02     LegendNANA
14:00 5.2 3.7 90 27 7   99.09     LegendNANA
15:00 6.9 2.6 74 28 11   99.15     LegendNANA
16:00 7.1 1.0 65 29 11   99.22     LegendNANA
17:00 6.9 -0.8 58 27 7   99.31     LegendNANA
18:00 4.7 -1.4 65 29 4   99.39     LegendNANA
19:00 1.6 -0.7 85   0   99.49     LegendNANA
20:00 -0.4 -1.5 92 22 2   99.58   -1 LegendNANA
21:00 -0.5 -1.4 94 19 2   99.61   -1 LegendNANA
22:00 -1.2 -1.8 96   0   99.68     LegendNANA
23:00 -1.5 -2.1 96   0   99.70     LegendNANA

Notes on Data Quality.

Legend

  • E = Estimated
  • M = Missing
  • NA = Not Available
  • ‡ = Partner data that is not subject to review by the National Climate Archives
Date modified: